Theta_e
307 306 306 305 305 305 305 305 304 304 304 304 304 304 304 304 303 303 303 303 302 302 302 302 301 301 301 301 301 300 300 300 300 299 299 299 299 299 299 299 299 298 298 297 297 297 297 297 297 297 298 298 298 298 298 297 297 297 297 297 297 297 296 296 296 296 296 296 296 296 296 296 297 297 297 297 297 297 297 297 297 297 297 297 297 297
306 305 305 305 304 304 304 304 304 304 304 304 304 304 304 303 303 303 302 302 302 302 301 301 301 301 301 301 301 300 300 300 300 300 300 300 299 299 299 299 299 298 298 297 297 297 297 297 298 298 298 298 297 297 297 297 297 296 296 296 296 296 296 295 295 295 295 295 295 295 296 296 296 296 296 296 296 297 297 297 297 297 296 297 297 297
305 305 304 304 304 304 304 304 304 304 304 304 304 303 303 303 303 303 302 302 302 302 301 301 301 301 301 300 301 300 300 300 300 300 300 300 300 299 299 299 298 298 298 298 297 297 297 297 297 297 297 297 297 296 296 296 296 295 295 295 295 294 294 294 294 294 294 294 294 294 295 295 296 296 296 296 296 296 296 296 296 296 296 296 296 296
304 304 304 304 304 304 304 304 304 303 303 303 303 303 303 303 303 302 302 302 302 301 301 301 301 300 300 300 300 300 300 300 300 300 300 300 299 299 299 298 298 298 298 298 297 297 297 297 297 296 296 296 296 295 295 295 294 294 294 293 293 293 292 292 292 292 292 292 292 293 293 293 294 294 294 295 295 294 294 294 294 294 294 294 294 294
304 304 303 303 304 303 303 303 303 303 303 303 303 303 302 302 302 302 301 301 301 301 301 301 300 300 300 300 300 300 300 299 299 299 299 299 298 298 298 298 298 298 297 297 297 297 297 296 296 296 295 295 295 294 294 293 293 293 292 292 291 291 291 290 290 290 290 291 291 291 291 291 291 292 292 292 292 292 292 292 292 292 292 292 292 292
303 303 303 303 303 303 303 303 303 302 302 302 302 302 302 302 301 301 301 301 300 300 300 300 299 299 299 299 299 299 299 298 298 298 298 298 297 297 297 297 297 297 297 296 296 296 296 295 295 294 294 294 293 293 292 292 291 291 291 290 290 290 290 290 290 290 290 290 290 290 290 290 290 290 290 290 290 290 290 290 290 290 290 290 290 291
303 303 302 302 302 302 302 302 302 302 302 302 302 301 301 301 301 300 300 300 299 299 299 299 298 298 298 298 298 297 297 297 297 297 296 296 296 295 295 295 295 295 294 294 294 294 293 293 293 292 292 291 291 291 290 290 289 289 289 288 288 288 288 288 288 289 289 289 290 290 290 290 290 289 289 289 289 289 289 289 289 289 289 289 290 290
302 302 302 302 302 302 301 301 301 301 301 301 301 300 300 300 300 299 299 298 298 297 297 297 297 296 296 296 296 295 295 295 294 294 293 293 293 292 292 292 291 291 291 291 291 291 291 290 290 290 289 289 289 289 288 288 288 288 287 287 287 287 287 287 287 287 287 288 288 289 289 289 289 289 289 289 288 288 288 288 288 288 288 289 289 290
302 301 301 301 301 301 301 301 301 300 300 300 299 299 298 298 297 297 296 296 296 295 295 295 294 294 293 293 293 292 292 291 291 290 290 290 289 289 289 289 289 289 289 289 289 289 289 288 288 288 288 288 288 287 287 287 287 287 287 286 286 286 286 286 286 286 286 287 287 287 288 288 288 288 288 288 288 288 288 288 288 288 288 288 288 289
301 301 301 301 300 300 300 300 299 299 299 298 297 296 295 295 294 294 293 293 293 293 292 292 292 292 291 291 290 290 290 289 289 289 288 288 288 288 288 288 288 288 288 288 288 288 288 287 287 287 287 287 287 287 287 287 287 286 286 286 286 286 285 285 285 285 285 285 286 286 286 286 286 287 287 287 287 287 287 287 287 287 287 288 288 289
301 301 300 300 300 299 299 298 297 297 296 294 294 293 292 292 292 292 291 291 291 291 290 290 290 290 290 289 289 289 288 288 288 288 288 288 287 287 287 287 287 287 287 287 287 287 287 287 287 287 287 287 287 287 287 287 286 286 286 286 285 285 285 285 285 285 285 285 285 285 285 285 285 286 286 286 286 287 287 287 287 287 287 288 288 288
300 300 300 299 298 297 296 295 294 293 292 291 291 290 290 290 290 290 290 290 289 289 289 289 289 289 288 288 288 288 288 288 287 287 287 287 287 287 287 287 287 287 287 287 287 287 287 287 287 287 287 287 287 287 287 286 286 286 286 285 285 285 285 285 285 285 285 285 285 285 285 285 285 285 285 286 286 286 287 287 287 287 288 288 288 289
299 298 297 296 294 293 292 291 291 290 290 289 289 289 289 289 289 289 289 289 289 288 288 288 288 288 288 288 288 287 287 287 287 287 287 287 287 287 287 287 287 287 287 286 286 286 286 286 286 286 286 286 286 286 286 286 286 286 285 285 285 285 285 285 285 285 285 285 285 285 285 285 285 285 286 286 286 286 287 287 287 288 288 288 289 289
296 294 293 291 290 290 289 289 289 289 289 289 289 288 288 288 288 288 288 288 288 288 288 288 287 287 287 287 287 287 287 287 287 287 287 287 287 287 287 286 286 286 286 286 286 286 286 286 286 286 286 286 286 286 286 286 285 285 285 285 284 284 285 285 285 285 285 285 285 285 285 285 285 285 286 286 286 287 287 287 287 288 288 289 289 289
291 290 289 289 288 288 288 288 288 288 288 288 288 288 288 288 288 288 288 288 287 287 287 287 287 287 287 287 287 286 286 286 286 286 286 286 286 286 286 286 286 286 286 286 286 286 286 285 285 285 285 285 286 285 285 285 285 285 284 284 284 284 285 285 285 285 285 285 285 285 285 286 286 286 286 286 287 287 287 288 288 288 288 289 289 289
289 288 288 288 288 287 288 288 288 288 288 288 288 287 287 287 287 287 287 287 287 286 286 286 286 286 286 286 286 286 286 286 285 285 285 285 285 286 286 285 285 285 285 285 285 285 285 285 285 285 285 285 285 285 285 285 285 284 284 284 284 284 285 285 285 285 285 285 286 286 286 286 286 286 287 287 287 287 288 288 288 288 288 289 289 289
288 287 287 287 287 287 287 287 287 287 287 287 287 287 287 286 286 286 286 286 286 286 285 285 285 285 285 286 286 286 286 285 285 285 285 285 285 285 285 285 285 285 284 284 285 285 285 285 285 285 285 285 285 285 285 285 285 285 284 284 285 285 285 285 286 286 286 286 286 286 286 286 287 287 287 287 287 288 288 288 288 288 288 289 289 289
287 287 287 287 287 287 287 287 286 286 286 286 286 286 286 286 286 285 285 285 285 285 285 285 285 285 284 285 285 286 285 285 285 285 285 285 285 285 285 285 285 284 284 284 284 284 285 285 285 285 285 285 285 285 285 285 285 285 285 285 285 285 286 286 286 286 286 286 286 286 286 287 287 287 287 287 288 288 288 288 288 289 289 289 289 289
287 287 286 286 286 286 286 286 286 286 286 286 286 285 285 285 285 285 285 285 285 284 284 284 284 284 284 284 285 285 285 285 285 285 284 284 285 285 285 285 285 284 284 284 285 285 285 285 285 285 285 285 285 285 285 285 285 285 285 286 286 286 286 286 286 286 286 286 286 286 287 287 287 287 287 287 288 288 288 288 288 289 289 289 289 289
286 286 286 286 286 286 286 286 286 286 286 286 285 285 285 285 285 285 285 285 284 284 284 284 284 284 284 284 284 284 284 284 284 284 284 284 284 285 285 285 285 285 285 285 285 285 285 285 285 285 285 285 285 285 285 285 285 286 286 286 286 286 286 286 286 286 287 287 287 287 287 287 287 287 287 287 287 288 288 288 288 288 289 289 289 289
286 286 286 286 286 286 286 286 286 286 285 285 285 285 285 285 285 285 285 285 284 284 284 284 284 284 284 284 284 284 284 284 284 284 284 284 284 285 285 285 285 285 285 285 285 285 285 285 285 285 285 285 285 285 285 285 286 286 286 286 287 287 287 287 287 287 287 287 287 287 287 287 287 287 287 287 287 288 288 288 288 288 288 289 289 289
286 286 286 286 286 285 285 285 285 285 285 285 285 285 285 284 285 284 284 284 284 284 284 284 284 284 284 284 284 284 284 284 284 284 284 284 284 284 285 285 285 284 284 285 285 285 285 285 285 285 285 285 285 285 285 286 286 286 287 287 287 287 287 287 287 287 287 287 287 287 287 287 287 287 287 287 287 288 288 288 288 288 288 289 289 289
286 286 285 285 285 285 285 285 285 285 285 285 285 285 284 284 284 284 284 284 284 284 284 284 284 284 284 284 284 284 284 284 284 284 284 284 284 284 285 285 284 284 285 285 285 285 285 285 285 285 286 286 286 286 286 286 286 287 287 287 287 287 287 287 287 287 287 287 287 287 287 287 287 287 287 287 287 288 288 288 288 288 288 288 289 289
286 285 285 285 285 285 285 285 285 285 285 285 285 284 284 284 284 284 284 284 284 284 284 284 284 284 284 284 284 284 284 284 284 284 284 283 283 283 284 284 284 284 285 285 285 285 286 286 286 286 286 286 286 286 286 286 287 287 287 287 287 287 287 287 287 287 287 287 287 287 287 287 287 287 287 287 288 288 288 288 288 288 288 289 288 289
286 285 285 285 285 285 285 285 285 284 285 285 285 285 285 285 285 284 284 284 284 284 284 284 284 283 284 283 283 284 284 284 284 283 283 283 283 283 284 284 284 285 285 285 285 286 286 286 286 286 286 286 286 286 287 287 287 287 287 287 287 288 288 288 288 288 287 287 287 287 287 288 288 288 288 288 288 288 288 288 288 288 288 288 288 289
286 285 285 285 285 285 285 285 284 284 284 284 285 284 284 284 284 284 285 284 284 284 284 283 283 283 283 283 283 283 284 284 283 283 283 283 283 283 284 284 285 285 285 285 286 286 286 286 286 286 286 287 287 287 287 287 287 287 287 287 287 288 288 288 288 288 288 288 288 288 288 288 288 288 288 288 288 288 288 288 288 288 288 288 288 289
285 285 285 285 285 285 285 285 284 284 284 284 284 284 284 284 284 284 284 284 284 283 283 283 283 283 283 283 283 283 283 283 283 283 283 283 283 283 284 284 285 285 285 286 286 286 286 286 286 286 287 287 287 287 287 287 287 287 287 287 287 288 288 288 288 288 288 288 288 288 288 288 288 288 288 288 288 288 288 288 288 288 288 288 289 289
285 285 285 285 285 285 285 284 284 284 284 284 284 284 284 284 284 284 284 284 283 283 283 283 282 282 282 282 282 282 283 283 283 283 283 283 283 284 284 284 285 285 286 286 287 287 287 287 287 287 287 287 287 287 287 287 287 287 287 287 287 288 288 288 288 288 288 288 288 288 288 288 288 288 288 288 288 288 288 288 288 288 288 289 289 289
285 284 284 284 284 284 284 284 284 284 284 284 284 283 283 283 283 283 283 283 283 283 283 283 282 282 282 282 282 282 283 283 283 283 283 283 283 284 284 285 285 286 286 287 287 287 287 287 287 287 287 287 287 287 287 287 287 287 287 288 288 288 288 288 288 288 288 288 288 288 288 288 288 288 288 288 288 288 288 288 288 288 288 288 289 289
284 284 284 284 284 284 284 284 284 284 284 284 283 283 283 283 283 283 283 283 283 283 283 282 282 282 282 282 282 282 283 283 284 284 283 283 283 283 284 285 285 286 286 286 286 286 286 287 287 287 287 287 287 287 287 287 287 287 287 288 288 288 288 288 288 288 288 288 288 288 288 288 288 288 288 288 288 288 288 288 288 288 288 288 289 289
284 284 284 284 284 284 284 284 284 284 283 283 283 283 283 283 283 283 283 283 283 283 283 282 282 282 282 282 282 282 283 283 283 283 283 283 283 284 284 285 285 286 286 286 286 285 285 286 286 287 287 287 287 287 287 287 287 287 287 287 288 288 288 288 288 288 288 288 288 288 288 288 288 288 288 288 288 288 288 288 288 288 288 288 289 289
283 283 283 283 283 284 283 283 283 283 283 283 283 283 283 283 283 283 283 283 283 283 283 283 282 282 282 282 282 282 283 283 283 283 283 283 283 284 284 285 285 286 286 286 285 285 285 285 286 286 287 287 287 287 287 287 287 287 287 287 287 287 288 288 288 288 288 288 288 288 288 288 288 288 288 288 288 288 288 288 288 288 288 289 289 289
283 283 283 283 283 283 283 283 283 283 283 283 283 283 283 284 284 284 284 283 283 283 283 283 282 282 282 282 282 282 282 282 282 283 283 284 284 284 285 285 285 286 286 286 286 285 285 285 286 286 286 286 287 287 287 287 287 287 287 287 287 287 287 288 288 288 288 288 288 289 288 288 288 288 288 288 288 289 288 289 289 289 289 289 289 289
283 283 283 283 283 283 283 283 283 283 283 283 284 284 284 284 284 284 284 284 284 283 283 283 283 282 282 282 282 282 282 282 282 283 284 284 284 284 285 285 285 285 285 285 285 285 285 286 286 286 286 286 286 286 287 287 287 287 287 287 287 287 287 287 287 288 288 288 288 289 289 289 289 289 289 289 289 289 289 289 289 289 289 289 289 289
283 283 283 283 283 283 284 284 284 284 284 284 284 284 284 284 284 284 284 284 284 283 283 283 283 283 282 282 282 282 282 282 282 283 284 284 284 285 285 285 286 285 285 285 285 285 285 285 285 285 285 286 286 286 286 286 287 287 287 288 287 287 287 287 287 288 288 288 288 288 289 289 289 289 289 289 289 289 289 289 289 289 289 289 289 290
283 283 283 283 284 284 284 284 284 284 284 284 284 284 284 284 284 284 284 284 284 284 283 283 283 283 283 282 282 282 282 282 282 283 284 284 284 285 285 285 285 285 285 285 285 285 285 285 285 285 285 286 286 286 286 286 286 287 287 287 288 288 288 288 288 288 288 288 288 288 288 289 289 289 289 289 289 289 289 289 289 289 289 290 290 290
283 283 283 283 284 284 284 284 284 284 284 284 284 284 284 284 284 284 284 284 284 284 283 283 283 283 283 283 282 282 282 283 283 283 284 284 285 285 285 285 285 285 285 285 285 285 285 285 285 286 286 285 285 285 285 286 286 286 287 287 287 288 288 288 288 288 288 288 288 288 288 288 289 289 289 289 289 289 289 289 289 289 290 290 290 290
283 283 283 283 283 284 284 284 284 284 284 284 284 284 284 284 284 284 284 284 284 284 284 283 283 283 283 283 283 283 283 283 283 284 284 285 285 285 285 285 285 285 285 285 285 285 285 285 285 285 285 285 285 285 285 286 286 287 287 287 287 288 288 288 288 288 288 288 288 288 288 288 288 288 289 289 289 289 289 289 289 290 290 290 290 290
283 283 283 283 283 283 284 284 284 284 284 284 284 284 284 284 284 284 284 284 284 284 284 284 283 283 283 283 283 283 283 284 284 284 285 285 285 285 285 286 286 285 285 285 285 285 285 285 285 285 285 285 286 286 286 286 286 287 287 287 288 288 288 288 288 288 288 288 288 288 288 288 288 288 289 289 289 289 289 289 290 290 290 290 290 289
283 283 283 283 283 283 283 283 283 283 283 283 283 283 284 284 284 284 284 284 284 284 284 284 284 283 283 283 283 284 284 284 284 285 285 285 285 285 286 286 286 286 285 285 285 286 286 285 286 286 286 286 286 286 286 286 287 287 287 288 288 288 288 288 288 288 288 288 288 288 288 288 288 288 289 289 289 289 289 289 289 289 289 289 289 289
283 283 283 283 283 283 283 283 283 283 283 283 283 283 283 283 283 283 283 283 284 284 284 284 284 284 284 284 284 284 284 285 285 285 285 285 285 285 286 286 286 286 286 285 285 286 286 286 286 286 286 286 286 286 286 287 287 287 287 287 287 288 288 288 288 288 288 288 288 288 288 288 288 288 288 289 289 289 289 288 288 288 288 288 288 288
283 283 283 283 283 283 283 283 283 283 283 283 283 283 283 283 283 283 283 283 283 283 283 283 284 284 284 284 284 285 285 285 285 285 285 285 286 286 286 286 286 286 286 285 286 286 286 286 286 286 286 286 286 286 286 287 287 287 287 287 287 287 288 288 288 287 288 288 288 287 287 288 288 288 288 288 288 288 288 288 288 288 287 287 287 287
283 283 283 283 283 283 283 283 283 283 283 283 283 283 283 283 283 283 283 283 283 283 283 283 283 284 284 284 284 285 285 285 285 285 285 286 286 286 286 285 285 285 285 286 286 286 286 286 286 286 286 286 285 285 286 286 287 287 286 286 286 287 287 287 287 287 287 287 287 287 287 287 287 287 287 287 288 288 287 287 287 287 287 287 287 287
283 283 283 283 283 283 283 283 283 283 283 283 283 283 283 283 283 283 283 283 283 283 283 283 284 284 284 284 285 285 285 285 285 285 285 285 285 285 285 285 285 285 286 286 286 286 286 286 286 286 285 285 285 285 286 286 286 286 286 286 286 286 286 287 287 287 287 287 287 287 287 287 287 287 287 287 287 287 287 287 287 287 287 287 287 287
283 283 283 283 283 283 283 283 283 283 283 283 283 283 283 283 283 283 283 283 283 283 284 284 284 284 285 285 285 285 285 285 285 285 285 285 285 285 285 285 285 285 286 286 286 286 286 286 285 285 285 285 285 285 285 286 286 286 286 286 286 286 286 286 286 286 287 287 287 286 286 286 286 287 287 287 287 287 287 287 287 287 287 287 287 287
283 283 283 283 283 283 283 283 283 283 283 283 283 283 283 283 283 283 283 283 283 284 284 284 284 285 285 285 285 285 285 285 285 285 285 285 285 285 285 285 285 285 286 286 286 286 286 286 285 285 285 285 285 285 286 285 285 286 286 286 286 286 286 286 286 286 286 286 286 286 286 286 286 286 287 287 287 287 287 287 287 287 287 287 288 288
282 282 283 283 283 283 283 283 283 283 283 283 283 283 283 283 283 283 283 283 284 284 284 284 284 285 285 285 285 285 285 285 285 285 284 284 284 285 285 285 285 285 285 286 286 286 286 286 285 285 285 285 285 285 285 285 285 285 285 285 285 286 286 286 286 286 286 286 286 286 286 286 286 286 286 287 287 287 287 287 287 287 287 287 288 288
282 282 282 282 283 283 283 283 283 283 283 282 282 282 282 283 283 283 283 283 284 284 284 284 285 285 285 285 285 285 285 285 285 285 284 284 284 284 284 285 285 285 285 285 285 285 285 285 285 285 285 285 285 285 285 285 285 285 285 285 285 286 286 286 286 286 285 286 286 286 286 285 286 286 286 286 286 287 287 287 287 287 287 287 287 287
282 282 282 282 282 282 282 282 282 282 282 282 282 282 282 282 283 283 283 284 284 284 284 285 285 285 285 285 285 285 285 285 285 284 284 284 284 284 284 285 285 285 285 285 285 285 285 285 285 285 285 285 285 285 285 285 285 285 285 285 285 285 286 286 286 286 285 285 285 286 286 285 285 285 285 285 286 286 287 287 287 287 287 287 287 287
282 282 282 282 282 282 282 282 282 282 282 282 282 282 282 282 283 283 283 283 284 284 284 285 285 285 285 285 285 285 285 284 284 284 284 284 284 284 285 285 285 285 285 285 285 285 285 285 285 285 285 285 285 285 285 285 285 285 285 285 285 285 285 286 286 286 285 285 285 285 285 285 285 285 285 285 285 286 286 287 287 287 287 287 287 287
282 282 282 282 282 282 282 282 282 282 282 282 282 282 282 282 282 283 283 283 284 284 284 284 285 285 285 285 285 285 284 284 284 284 284 284 284 284 285 285 285 285 285 285 285 285 285 284 284 284 285 285 285 285 285 285 285 285 285 285 285 285 285 285 285 285 285 285 285 285 285 285 285 285 285 285 285 285 286 286 287 287 287 286 286 286
Wind_Speed
15 15 14 14 13 12 11 10 9 9 9 9 8 8 7 6 6 6 5 5 5 5 5 5 5 5 5 6 6 7 8 9 10 11 12 14 15 15 16 16 17 17 17 17 18 18 18 18 18 17 16 15 14 13 12 12 12 11 11 11 11 11 10 9 9 10 10 10 10 10 10 11 12 14 15 16 17 17 17 17 17 17 17 17 18 18
13 13 12 11 10 9 9 8 8 7 8 8 7 7 6 6 5 4 4 4 5 5 5 6 6 6 6 7 7 7 8 8 9 10 11 12 13 14 14 15 15 15 15 15 15 15 15 15 14 14 13 13 12 12 12 12 12 11 11 12 12 12 11 11 11 12 12 12 12 12 12 13 14 16 17 17 18 18 18 18 18 19 19 19 19 19
11 11 10 9 8 7 7 7 7 6 6 7 7 6 6 6 5 5 5 5 5 6 6 6 6 7 7 8 8 8 8 9 9 10 11 11 12 13 13 14 14 14 13 13 13 13 13 13 13 13 13 13 13 13 12 12 12 12 12 12 12 13 13 13 13 14 14 15 15 15 16 16 17 18 18 19 19 20 20 20 20 21 21 22 22 22
9 8 8 7 6 6 6 6 6 6 6 6 7 7 7 7 7 6 6 6 7 7 7 7 7 7 8 9 9 9 9 10 10 11 11 11 12 12 13 13 13 13 13 13 13 13 14 14 14 14 14 14 14 14 13 13 13 13 13 13 13 13 13 13 14 15 15 16 17 17 18 19 20 20 21 21 21 21 22 22 22 23 23 24 24 24
7 6 6 5 5 5 6 6 6 6 6 7 7 8 8 8 8 8 8 8 8 8 8 8 8 8 9 10 10 10 11 11 11 11 11 12 12 12 13 13 13 13 13 13 14 14 15 15 15 15 15 15 15 15 14 14 14 13 13 13 13 13 13 13 14 14 15 16 16 17 18 19 20 20 21 21 21 21 21 22 22 22 23 23 23 23
6 5 5 5 5 5 6 6 7 7 8 8 8 9 9 9 9 10 9 9 9 9 9 9 9 10 10 11 11 11 12 12 12 12 12 12 12 12 13 13 13 13 13 14 14 15 15 15 15 15 15 15 15 15 15 14 14 14 14 14 14 14 14 14 14 14 15 15 16 16 17 17 18 18 19 19 19 19 19 19 20 20 20 20 20 20
6 5 5 5 6 6 7 7 8 8 9 9 10 10 10 10 11 11 11 11 11 11 11 11 11 11 11 12 12 12 12 12 12 12 12 12 12 12 12 12 13 13 13 14 14 15 15 15 15 15 15 15 15 14 14 14 14 14 15 15 15 15 15 15 15 15 16 16 16 16 17 17 18 18 18 18 18 18 18 18 18 18 18 17 16 16
6 6 6 7 7 8 8 9 9 10 10 10 10 11 11 11 11 11 11 12 12 11 11 11 11 11 11 11 11 11 11 11 11 11 11 11 11 11 11 12 12 12 13 13 13 14 14 14 14 14 15 15 15 15 15 15 15 15 15 15 16 16 16 17 17 17 17 17 18 18 18 18 19 19 19 18 18 18 18 18 18 17 16 15 14 14
7 8 8 8 9 9 10 10 11 11 11 11 11 10 11 11 11 12 12 12 12 11 11 11 11 11 11 11 11 11 11 11 10 10 10 11 11 11 11 11 12 12 13 13 13 14 14 14 15 15 15 15 15 16 16 16 16 16 16 16 17 17 17 18 18 18 18 19 19 19 19 20 20 19 19 19 19 19 19 18 18 17 16 15 14 13
9 9 10 10 11 11 11 11 12 12 12 11 11 11 10 10 10 10 11 11 11 11 11 10 10 11 11 11 11 11 11 11 11 10 10 11 11 12 12 12 13 13 13 14 14 15 15 15 16 16 17 17 17 17 17 17 17 17 17 17 17 17 18 18 19 19 19 20 20 20 20 20 20 20 20 19 19 19 19 18 17 16 15 14 13 12
11 11 12 12 12 13 12 12 12 12 12 11 11 11 10 9 9 8 8 9 11 11 11 11 11 11 11 12 12 12 12 12 12 12 12 12 12 13 13 14 14 14 15 15 16 16 16 17 18 18 19 19 19 19 18 18 18 17 17 17 18 18 18 18 19 19 20 20 20 20 21 21 20 20 20 19 19 18 18 17 16 15 13 12 12 11
13 13 13 13 13 13 13 13 12 12 11 9 9 9 9 9 8 7 8 9 11 12 12 12 12 12 12 12 12 13 13 13 14 14 14 15 15 15 15 15 16 16 16 17 17 17 18 18 19 19 20 20 20 20 19 19 18 18 18 18 18 18 18 18 19 19 19 20 20 20 20 20 20 19 19 18 18 17 17 16 14 13 12 11 11 10
14 14 14 14 13 12 11 11 10 10 9 8 7 7 8 9 9 8 9 11 12 12 12 12 12 13 12 12 13 14 14 15 15 15 16 16 16 16 16 16 17 17 18 18 18 18 19 19 20 20 20 21 21 20 20 19 19 18 18 18 18 18 18 18 18 18 18 18 18 18 18 18 18 18 17 17 17 16 15 14 13 12 12 11 10 10
13 13 12 11 11 10 10 9 8 8 8 8 8 8 9 10 10 10 10 11 12 12 12 12 13 14 14 14 14 14 15 16 16 16 16 17 17 17 17 17 18 18 19 19 19 19 20 20 20 21 21 21 21 20 20 19 19 18 18 18 17 17 17 16 16 16 16 16 16 16 16 16 16 16 16 16 15 15 14 13 13 12 12 11 11 11
11 10 9 9 9 9 9 8 8 8 9 9 9 9 10 10 10 10 10 12 13 13 13 13 13 14 16 15 15 14 15 16 16 16 16 17 17 17 17 17 18 19 19 19 20 20 20 20 20 21 21 21 21 20 20 19 19 18 18 17 16 16 15 15 15 14 14 14 14 14 14 15 15 15 15 14 14 13 13 13 12 12 12 12 11 11
10 9 8 8 8 8 8 8 8 8 9 10 10 10 10 11 11 11 11 12 13 14 14 13 12 12 14 16 15 14 14 15 16 16 16 16 17 17 17 17 18 19 19 20 20 20 20 20 20 21 21 21 20 20 19 19 19 18 17 16 15 15 14 14 14 14 13 13 13 13 13 14 13 13 13 13 13 12 12 12 12 12 11 11 11 11
9 8 8 7 8 8 9 8 8 9 10 10 10 10 10 11 12 12 12 13 13 14 13 13 12 11 10 12 15 15 14 14 16 16 16 16 16 17 17 17 17 18 19 19 19 20 20 20 20 20 20 20 19 19 18 18 18 17 16 15 14 14 13 13 13 13 13 13 13 13 13 13 13 13 13 12 12 12 12 12 12 11 11 11 10 10
8 7 7 7 8 9 9 9 9 9 10 10 11 11 11 11 11 12 12 13 13 13 12 13 12 12 10 10 14 16 14 14 15 16 17 16 16 16 16 16 17 18 18 18 19 19 19 19 19 19 18 18 17 17 17 16 16 16 15 14 13 13 12 12 12 12 12 13 13 13 13 13 13 13 13 12 12 13 12 12 12 12 11 11 11 11
8 8 7 7 8 9 9 9 9 10 10 10 11 11 11 11 11 11 11 12 12 12 12 12 12 12 12 11 13 15 14 14 15 17 17 17 17 17 17 16 16 17 17 17 17 18 18 18 18 17 17 16 15 15 15 14 14 14 13 13 12 12 11 11 11 12 12 12 13 13 13 13 13 13 13 13 13 13 13 13 12 12 12 12 12 12
8 8 8 8 8 9 9 9 10 10 10 10 10 11 11 11 11 11 11 11 11 11 11 12 12 12 12 13 14 14 14 14 15 17 18 18 17 17 17 16 16 16 16 16 16 16 16 16 16 16 15 15 14 14 13 13 12 12 11 11 10 10 11 11 11 11 12 12 12 12 13 13 13 13 13 13 13 13 13 13 13 13 13 13 13 13
7 8 8 8 8 8 8 9 10 10 10 10 10 10 11 11 10 10 11 11 11 11 11 11 12 12 13 13 14 14 14 14 15 17 18 18 18 17 17 16 16 16 16 15 15 15 15 15 15 15 15 14 14 13 12 11 11 10 10 10 10 10 10 11 11 11 12 12 12 12 13 13 13 13 13 13 14 14 14 14 14 15 15 15 15 15
7 8 8 8 7 8 8 10 10 10 10 9 9 10 10 10 10 10 10 10 11 11 11 11 12 13 13 13 13 13 13 14 15 16 18 19 18 17 18 17 16 15 15 14 14 13 13 13 14 14 14 14 13 13 12 11 11 10 10 10 10 10 11 11 11 12 12 12 13 13 13 13 13 14 14 14 14 15 15 15 16 16 16 16 16 16
8 8 8 8 7 8 8 9 10 10 9 9 9 9 10 10 10 10 10 11 11 11 12 12 12 13 13 13 13 12 12 12 13 15 17 18 17 16 18 17 15 14 13 13 12 12 12 12 13 14 14 14 14 13 12 12 11 11 11 11 11 11 11 12 12 12 13 13 13 14 14 14 14 14 15 15 16 16 16 17 17 17 17 17 17 17
8 8 8 8 8 8 8 9 9 9 9 9 9 9 10 10 10 10 10 10 11 12 13 13 13 14 14 14 14 13 12 11 12 14 16 17 17 16 17 16 15 13 12 11 11 11 11 12 13 14 14 14 14 13 13 13 12 12 12 12 12 12 12 12 12 13 13 14 14 15 15 15 15 16 16 16 17 17 17 17 17 17 17 18 18 17
9 8 8 8 8 8 8 8 9 9 9 10 10 10 11 11 10 10 10 11 12 13 14 15 15 15 15 14 15 15 15 13 12 13 15 16 17 16 16 15 14 13 12 11 11 11 11 12 13 14 15 15 15 14 14 14 14 14 13 13 13 13 13 13 13 13 14 14 15 15 15 16 16 17 17 17 18 18 17 17 18 18 18 18 18 18
10 9 9 9 8 8 8 8 9 9 10 11 12 13 13 13 13 13 13 13 13 14 15 16 16 15 15 14 14 14 15 14 12 12 14 15 16 16 15 14 13 13 12 11 11 11 11 12 13 13 14 15 15 14 14 14 14 15 15 14 14 14 14 14 14 14 14 14 14 15 15 16 16 17 17 17 17 18 18 18 18 19 19 19 19 19
11 11 10 10 10 9 9 9 9 10 11 11 12 13 14 15 16 16 15 15 14 15 15 16 16 16 15 14 14 14 15 15 13 12 12 14 15 15 14 13 13 13 13 12 11 11 11 11 11 12 13 14 14 14 14 14 14 15 15 15 15 15 15 15 15 14 15 15 15 15 15 16 16 17 17 17 18 18 18 19 19 20 20 20 20 20
12 12 12 12 12 11 11 11 11 11 11 11 12 13 14 15 16 16 16 15 15 16 16 17 17 16 15 15 15 15 15 15 13 12 12 13 14 14 14 14 13 13 13 13 12 12 11 10 10 10 11 12 12 13 13 13 14 14 15 15 16 16 16 16 16 16 16 16 16 16 16 17 17 17 18 18 18 19 19 20 20 20 20 21 21 21
12 12 12 12 12 12 12 12 12 12 12 13 13 14 14 15 16 16 16 16 16 17 17 17 16 16 16 16 16 16 14 13 12 11 11 12 13 14 14 14 13 13 14 14 14 13 12 11 10 9 10 10 11 12 12 13 13 14 15 15 16 16 17 17 17 17 17 17 17 17 18 18 18 18 19 19 19 20 20 20 20 20 21 21 21 21
12 13 13 13 13 13 13 13 14 14 14 14 14 15 15 16 16 16 17 17 17 17 17 17 16 16 16 16 16 15 13 12 11 11 11 12 13 14 14 14 13 13 14 15 15 15 14 12 11 11 10 10 11 11 12 13 14 14 15 15 16 16 17 17 17 18 18 18 18 19 19 19 19 20 20 20 20 20 21 21 21 21 21 21 22 22
13 13 13 14 14 14 14 14 14 15 15 15 15 16 16 17 17 17 17 17 17 17 17 17 16 16 15 15 13 11 10 12 13 11 10 12 13 13 13 14 14 13 13 14 15 15 14 14 14 14 13 13 12 12 12 12 13 14 15 16 16 17 17 17 18 18 18 19 19 19 19 19 20 20 20 20 21 21 21 21 21 21 21 22 22 22
13 13 14 14 14 15 15 15 15 16 16 16 16 17 17 17 17 18 17 17 17 17 17 16 16 16 15 14 12 10 10 14 14 12 11 12 13 13 13 13 13 13 13 13 14 14 14 16 17 17 17 16 15 14 13 12 12 12 13 15 16 17 18 18 18 18 19 19 19 19 19 19 19 20 20 20 21 21 21 21 21 21 22 22 23 23
12 13 13 14 15 15 15 16 16 16 16 17 17 17 18 18 18 18 17 17 17 16 16 16 16 15 15 14 13 12 11 13 14 13 11 12 13 13 13 13 13 13 13 14 14 14 15 18 20 20 20 19 18 18 16 15 13 12 12 13 15 16 17 18 19 19 19 19 19 19 19 19 19 19 20 20 20 21 21 21 21 22 22 23 23 24
12 13 14 14 15 15 15 16 16 16 17 17 17 18 18 18 18 17 17 17 17 16 16 15 15 15 15 14 14 13 11 12 13 13 11 12 13 13 13 13 13 14 15 15 16 17 18 19 21 22 22 21 21 20 19 18 16 14 13 13 14 14 16 17 18 19 20 20 20 20 19 19 19 19 20 20 21 21 21 22 22 22 23 23 23 24
13 13 14 14 15 15 15 16 16 16 17 17 17 18 18 18 18 17 17 17 16 16 15 15 14 14 14 14 14 13 12 12 13 13 11 12 13 13 14 14 14 14 15 16 17 18 19 20 21 22 23 23 23 21 20 19 18 17 15 14 14 14 15 16 18 19 20 20 21 21 20 20 20 20 20 21 21 21 22 22 22 22 23 23 23 24
13 14 14 14 15 15 16 16 16 17 17 17 17 17 17 17 17 17 17 16 16 15 15 14 14 14 14 14 14 14 13 13 13 12 12 12 12 13 14 14 14 15 16 17 18 19 20 21 22 22 23 24 24 22 21 20 20 19 18 16 15 14 14 15 16 18 19 20 20 21 21 21 21 21 21 21 22 22 22 22 22 22 23 23 23 23
14 14 14 15 15 15 16 16 16 17 17 17 17 17 17 17 17 17 16 16 15 15 14 14 13 13 13 13 13 13 13 13 12 12 12 12 12 13 14 15 15 15 16 17 18 20 21 22 23 23 23 24 23 23 22 22 21 21 20 18 16 14 13 13 14 16 17 18 19 20 20 21 21 21 21 22 22 22 22 22 22 22 22 23 23 23
14 14 14 15 15 15 16 16 16 16 17 17 17 17 17 17 17 17 16 16 15 14 14 13 13 13 13 13 13 13 13 12 12 12 12 12 12 13 14 15 15 15 16 17 19 20 21 22 23 24 24 23 23 23 23 23 22 21 20 18 16 14 12 12 12 13 15 16 17 18 19 19 20 20 21 21 21 21 21 22 22 22 22 23 23 24
14 14 14 15 15 15 16 16 16 16 16 16 16 16 17 17 16 16 16 15 15 14 14 13 13 13 12 12 12 12 12 12 12 12 12 12 13 13 14 15 16 16 17 18 19 20 21 21 22 23 23 23 23 23 22 22 21 20 18 16 15 13 11 10 10 11 12 13 14 15 16 17 18 19 19 20 20 21 21 21 22 22 23 23 23 24
14 14 14 15 15 15 16 16 16 16 16 16 16 16 16 16 16 16 16 15 15 14 14 13 13 13 12 12 12 12 12 12 12 12 12 13 13 14 14 15 16 17 18 19 19 20 20 21 21 21 21 22 22 21 21 20 19 17 16 14 13 12 11 9 9 9 10 11 12 13 14 15 16 17 18 19 19 20 20 21 21 22 22 22 22 22
14 14 15 15 15 15 15 15 16 16 16 16 16 16 15 15 15 15 15 15 15 14 14 14 13 13 12 12 12 12 12 12 12 12 12 13 13 14 15 15 16 17 18 19 20 21 20 20 19 19 19 19 19 19 18 17 16 15 14 13 12 12 11 10 9 8 8 9 10 11 12 13 15 16 17 18 18 19 19 19 19 20 20 20 20 20
14 14 14 15 15 15 15 15 15 15 15 15 15 15 15 15 15 15 15 15 15 15 14 14 14 14 13 13 12 12 12 12 12 12 13 13 14 14 15 16 17 18 18 19 20 20 19 18 17 17 16 16 16 17 17 16 15 14 13 13 12 12 11 11 10 10 9 9 9 10 11 12 13 15 16 16 17 17 18 18 18 18 18 19 19 19
14 14 14 15 15 15 15 15 15 15 15 15 15 15 15 15 15 15 15 15 15 15 14 14 14 14 14 13 13 12 12 12 12 13 13 14 14 15 16 16 17 18 18 19 18 18 18 17 16 15 15 15 15 15 16 15 14 14 13 13 13 14 15 13 12 11 11 11 11 10 11 11 12 14 15 15 16 16 17 17 17 18 18 18 18 19
14 14 14 14 15 15 15 15 15 15 15 14 14 14 14 14 14 14 14 14 14 14 14 14 14 14 14 13 13 13 13 13 13 13 13 14 15 15 16 16 17 17 17 17 17 16 16 16 15 15 14 14 15 15 15 15 15 14 14 14 14 15 16 15 14 13 13 12 12 11 11 11 12 13 14 15 16 16 16 17 17 18 18 18 19 19
14 14 14 14 14 14 14 14 14 14 14 14 14 14 14 14 14 14 14 14 14 14 14 13 14 14 14 13 13 12 12 13 13 14 14 15 15 16 16 16 16 16 16 16 15 15 15 15 15 15 14 15 15 15 16 15 15 15 15 15 15 15 15 15 14 14 14 13 12 12 11 11 12 13 15 15 16 17 17 18 18 19 19 19 20 20
15 15 15 15 14 14 14 14 14 14 14 14 14 13 13 14 14 13 13 13 13 13 13 14 14 14 14 13 13 13 13 13 14 14 15 15 16 16 15 15 15 15 15 14 14 14 14 14 14 14 14 15 16 16 16 16 16 16 16 15 15 15 15 15 15 15 14 14 14 13 13 13 13 14 15 16 17 18 19 19 19 20 21 21 21 22
15 15 15 15 15 14 14 14 13 14 14 14 13 13 13 13 13 13 13 13 13 13 13 14 14 14 14 13 13 13 14 14 14 14 15 15 15 15 15 14 13 13 13 13 13 13 13 13 13 14 14 16 16 16 16 15 15 15 15 15 15 15 15 15 15 15 15 15 14 14 14 14 15 16 17 18 19 20 20 21 21 22 22 23 23 23
16 16 16 16 15 15 14 14 14 14 14 14 14 13 13 13 13 13 13 13 13 13 13 13 14 14 14 14 14 14 15 15 15 14 14 14 15 15 14 13 12 11 11 11 12 12 13 13 13 13 14 15 16 16 15 15 14 14 14 14 15 15 15 16 15 15 15 15 15 15 15 15 16 17 18 19 20 21 22 22 23 23 23 24 24 24
16 16 16 16 16 15 15 14 14 14 14 14 14 14 13 13 13 13 13 13 13 13 13 14 14 14 15 15 15 15 15 15 15 15 14 14 14 14 13 12 11 10 10 11 11 12 13 14 14 14 14 14 14 15 14 14 14 14 14 15 15 16 16 16 16 16 15 16 16 16 16 17 17 18 19 20 22 23 23 24 24 24 24 24 24 24
17 17 17 16 16 16 15 15 14 14 14 14 14 14 14 13 13 13 13 13 13 13 14 14 15 15 15 15 16 16 16 16 16 15 15 15 14 13 12 10 9 9 9 10 11 12 13 15 15 15 15 14 14 14 14 14 14 14 15 16 16 17 17 17 17 17 16 17 17 17 18 18 19 20 20 21 23 24 24 24 24 24 23 23 23 23
17 17 17 17 16 16 16 15 15 14 14 14 14 14 14 14 13 13 13 13 13 14 14 14 15 15 15 16 16 17 17 17 16 15 15 14 14 12 11 10 8 8 8 9 11 12 14 15 16 16 16 15 14 13 13 13 14 16 16 17 17 18 18 19 19 19 19 19 19 19 20 20 21 21 21 21 22 24 24 25 24 23 22 22 22 22
Wind_Direction
287 289 290 291 293 294 295 297 298 299 300 301 302 303 302 299 294 291 291 293 294 296 296 294 289 281 277 274 272 271 270 269 268 267 267 266 267 268 268 268 267 265 263 262 262 263 264 265 267 269 271 274 277 278 279 279 278 276 274 271 267 264 260 257 253 251 251 251 252 252 251 248 245 243 242 241 241 241 241 241 241 240 240 241 241 242
286 288 288 290 290 290 291 294 294 296 297 299 299 299 299 298 295 292 293 296 299 301 302 301 300 297 294 292 289 285 281 279 276 273 272 271 271 272 271 271 269 267 265 263 263 264 266 269 272 275 277 280 280 280 279 278 276 274 272 269 267 264 260 255 250 246 243 242 242 243 243 242 243 242 242 242 242 241 241 241 240 240 240 240 240 241
286 287 287 288 287 287 288 291 292 293 294 296 296 296 296 297 298 298 296 295 295 295 294 294 293 292 291 289 288 286 284 281 279 278 277 277 277 276 275 274 272 270 269 270 271 273 275 278 280 282 282 282 282 281 280 278 276 274 272 271 269 268 265 262 257 252 248 244 241 240 239 239 240 241 242 242 242 242 242 241 242 242 242 242 242 242
286 286 285 285 284 282 282 286 289 291 291 293 293 294 296 297 298 299 298 297 296 295 294 292 291 290 289 288 288 287 286 284 283 282 281 281 279 278 276 275 275 275 276 277 279 280 281 281 282 282 283 283 283 283 283 282 280 277 275 273 272 271 270 267 265 262 258 254 250 246 243 242 242 243 244 244 245 246 246 246 246 247 247 248 248 248
281 281 282 282 280 278 278 283 287 289 290 291 291 293 296 297 298 298 298 297 295 294 293 293 292 292 291 290 290 289 288 286 285 283 282 280 278 277 276 275 275 276 277 278 279 279 279 280 280 281 282 282 283 284 284 283 281 279 276 274 272 269 267 266 265 265 264 262 260 256 252 249 248 248 249 250 250 251 251 251 251 251 252 252 253 253
276 276 277 280 279 278 282 285 287 289 291 291 292 293 294 295 296 297 297 296 296 294 294 294 294 293 291 290 289 289 287 285 284 282 280 278 277 276 276 275 276 276 276 276 277 277 278 279 280 280 280 281 282 282 282 281 280 278 276 273 271 268 265 263 262 262 263 263 263 262 260 258 256 255 256 257 257 257 257 257 257 256 256 256 257 257
274 276 279 281 281 281 284 285 287 289 290 291 291 292 292 293 293 294 295 295 295 295 294 294 293 291 289 288 287 286 285 283 282 280 279 278 278 278 278 278 278 278 277 276 276 277 278 278 279 279 279 280 280 280 279 279 278 277 276 274 273 271 269 267 265 263 262 261 261 261 261 261 261 262 262 263 264 264 264 263 262 261 260 259 259 258
279 282 284 284 285 286 286 286 286 288 288 289 289 291 291 291 291 291 292 292 293 293 294 293 291 289 287 286 286 285 284 284 283 283 283 283 283 282 282 281 281 280 280 279 278 279 279 280 280 280 280 280 280 280 279 279 278 278 277 276 275 274 273 271 269 267 265 262 261 261 261 262 263 264 265 266 267 268 267 266 265 263 261 259 257 255
282 285 287 285 285 287 287 287 286 287 288 288 288 288 290 291 292 293 293 291 291 291 291 290 290 288 286 286 286 286 286 286 286 286 287 288 288 287 286 285 285 283 283 282 282 283 283 282 282 282 282 282 282 282 281 281 281 280 279 278 277 276 274 272 270 268 266 264 263 262 262 262 263 264 266 266 267 267 267 266 265 263 261 257 253 250
279 282 284 284 284 285 287 287 286 287 287 287 286 285 285 286 289 293 296 294 292 290 290 288 287 287 288 288 289 289 289 289 289 288 288 289 289 289 289 289 288 286 286 286 285 285 285 285 284 284 284 284 284 283 283 283 282 281 280 279 277 276 274 272 270 268 266 264 263 262 262 262 263 263 264 265 265 265 265 265 264 262 259 255 251 247
279 280 282 283 284 285 285 285 286 286 287 288 287 285 283 281 282 284 287 289 291 292 292 291 289 289 290 291 292 293 294 295 295 294 293 292 292 292 292 291 290 289 288 288 287 286 286 285 285 285 285 284 284 284 284 283 282 281 280 279 277 275 273 271 269 266 264 263 262 261 260 261 261 261 262 262 262 262 262 262 261 258 255 251 247 242
279 280 281 281 282 284 284 284 283 285 287 289 291 290 286 283 283 282 279 281 286 290 293 295 295 294 293 294 296 297 298 298 298 298 298 297 296 296 295 294 292 291 289 288 287 286 285 284 284 283 283 283 283 284 283 283 282 281 280 279 277 276 274 271 268 266 263 261 260 259 259 258 258 258 258 258 259 259 259 258 257 255 252 248 244 240
277 278 279 278 278 278 279 282 285 287 287 286 282 279 282 287 291 290 287 285 287 291 295 297 298 297 295 296 297 298 298 297 297 297 298 298 297 297 296 295 293 291 290 289 287 286 285 284 283 283 282 283 283 283 283 283 283 282 281 280 278 276 274 271 268 265 263 260 258 257 256 256 255 255 255 255 256 256 255 254 252 250 248 245 243 242
276 276 277 277 276 275 274 278 282 285 285 284 282 281 286 290 293 294 292 290 291 294 297 297 298 297 296 295 296 296 296 296 295 295 296 295 296 296 296 294 293 292 291 290 288 286 286 285 284 284 283 283 284 284 284 284 283 283 282 280 279 276 273 271 268 265 262 259 257 255 254 253 253 252 252 253 253 253 252 251 249 246 244 242 241 241
274 276 277 277 278 278 276 278 279 280 282 284 285 287 289 291 292 292 292 291 292 295 297 296 297 298 298 296 296 295 296 295 294 294 294 294 295 296 296 295 294 293 292 292 290 289 289 288 286 286 285 285 285 285 285 285 284 283 282 280 277 274 270 267 264 261 258 256 253 252 251 251 250 250 250 250 250 249 248 247 246 245 244 243 242 242
273 274 274 276 277 278 278 278 278 279 281 284 286 287 289 289 290 291 291 291 293 296 297 298 298 298 299 300 299 298 298 297 296 295 295 295 296 297 297 297 296 295 293 293 292 292 291 290 288 287 287 286 286 286 286 285 284 283 281 278 274 270 265 262 259 256 253 251 249 248 248 248 249 249 249 248 247 246 246 245 245 245 246 246 247 247
275 274 273 274 275 276 277 278 278 278 281 285 286 286 287 287 290 293 294 295 297 299 301 302 302 301 300 298 299 301 302 301 299 298 298 298 298 299 299 299 298 296 295 295 294 294 293 291 290 289 288 287 287 286 285 284 283 282 280 276 272 267 262 258 256 253 251 248 247 247 246 246 246 246 245 245 244 244 243 244 245 246 246 247 249 250
277 275 274 271 271 274 278 279 279 279 282 284 286 288 290 291 293 296 297 298 300 301 302 303 304 304 304 294 295 301 305 304 301 301 300 301 301 301 302 301 300 298 298 297 296 295 294 293 292 291 290 289 287 285 283 282 281 280 278 274 270 264 259 256 254 253 251 250 248 247 246 245 244 242 241 240 240 241 242 243 245 247 248 250 251 252
279 277 273 269 271 276 281 280 279 280 281 282 286 290 293 294 296 297 298 300 301 302 303 305 304 304 304 298 298 302 306 305 303 302 302 303 303 303 304 303 302 301 300 299 298 297 296 296 296 295 293 291 288 285 283 281 279 278 276 272 267 263 258 256 254 253 252 251 250 248 246 244 243 241 240 239 239 240 242 244 246 248 251 253 255 256
279 276 272 271 275 279 280 279 277 278 279 282 287 291 293 296 298 300 300 302 302 302 302 303 303 303 303 302 302 304 307 307 305 304 303 305 305 305 305 305 305 304 303 301 300 299 299 299 298 297 294 292 289 286 284 282 280 277 274 270 265 261 258 256 255 254 253 252 250 248 246 244 242 241 240 240 240 241 243 246 248 251 253 255 256 258
276 274 271 271 272 272 271 273 275 277 280 283 286 289 290 293 297 299 301 301 301 301 300 301 301 301 302 304 304 306 307 308 307 305 305 306 307 307 306 307 307 306 305 304 303 302 301 301 299 297 295 293 291 289 287 284 282 278 273 268 264 259 257 255 253 252 251 250 248 247 245 243 241 240 240 240 242 243 245 247 250 252 254 256 257 259
275 272 271 269 265 262 263 269 275 279 281 283 284 285 287 291 294 297 299 301 301 301 301 300 300 300 301 302 303 304 306 307 306 306 306 307 309 308 306 308 309 308 307 306 305 304 303 302 300 297 296 294 293 292 290 287 283 279 274 269 264 259 256 253 251 250 248 247 246 244 243 242 240 240 240 241 243 244 246 248 250 252 254 256 258 260
278 274 272 269 264 262 264 270 276 280 280 280 279 281 285 289 293 297 300 302 302 302 302 300 300 301 301 302 302 303 304 306 306 305 306 308 308 306 306 309 310 309 307 307 306 305 303 301 299 297 296 295 295 294 292 289 285 281 276 271 266 262 258 255 252 250 248 246 245 243 242 241 240 240 240 242 243 245 246 248 250 253 254 257 259 261
282 276 273 270 267 268 270 275 278 281 281 281 282 285 289 293 297 301 304 305 306 306 306 305 306 308 310 311 312 311 310 312 310 307 306 305 304 304 305 309 310 309 308 307 306 305 302 299 297 296 296 295 295 295 293 290 287 283 279 275 271 267 263 260 257 253 251 248 246 244 242 241 241 241 241 242 244 245 247 249 251 254 256 259 261 263
284 279 276 274 274 276 280 284 287 291 293 295 297 299 301 303 304 306 308 310 311 311 312 312 314 316 318 320 318 315 314 317 315 309 306 303 303 303 305 309 310 309 308 307 305 303 300 297 295 294 294 294 294 294 293 290 288 285 282 279 276 273 270 267 263 260 257 254 251 249 247 245 245 245 245 246 247 248 251 253 255 258 260 262 263 264
289 287 284 283 284 287 292 297 301 304 306 309 311 311 311 310 310 310 311 314 314 314 314 314 315 316 315 316 312 308 310 315 315 309 303 301 302 304 305 308 309 308 308 307 305 302 299 297 295 294 293 294 294 293 291 289 287 285 284 281 280 277 274 271 268 265 262 260 258 257 255 254 253 252 253 253 254 256 257 259 260 262 264 264 265 265
298 299 299 300 300 302 304 306 307 307 308 309 309 309 309 307 306 307 308 311 311 310 308 307 309 310 309 308 306 305 307 312 312 307 301 299 300 303 304 307 308 308 307 306 305 303 300 298 297 297 295 294 294 293 291 289 286 285 282 281 279 277 275 272 270 267 265 263 261 260 259 258 258 258 258 259 259 260 261 262 263 264 265 266 266 266
302 304 306 307 307 308 308 306 305 303 302 301 301 301 302 301 300 299 301 304 304 303 302 304 305 305 304 301 300 303 306 309 310 307 302 300 299 301 303 306 308 308 307 307 306 305 302 301 300 300 299 298 298 297 295 292 289 285 283 281 279 277 275 273 271 268 266 264 262 261 259 259 259 259 259 259 260 260 261 262 263 265 266 267 268 269
302 303 303 303 303 303 302 301 300 299 298 298 297 297 298 297 295 294 297 300 300 299 299 301 302 302 301 300 301 304 307 306 306 306 304 301 299 299 302 305 308 309 310 310 310 311 311 307 304 304 304 303 303 302 300 298 294 290 286 283 281 278 276 274 272 270 268 266 264 262 261 260 260 260 260 260 261 261 262 263 265 267 268 269 270 271
299 299 298 297 297 296 296 296 296 297 297 297 296 295 295 295 294 294 296 297 296 295 296 298 298 298 298 299 302 305 307 301 302 305 303 300 298 298 301 303 307 310 313 315 318 320 319 312 308 306 306 305 304 304 303 301 298 294 290 287 284 281 279 277 275 273 271 269 267 266 264 263 263 263 263 263 263 264 265 266 267 268 270 271 271 271
294 294 293 293 293 294 295 295 296 296 296 295 293 292 291 292 292 292 293 293 293 293 294 294 293 293 293 293 294 295 296 293 297 303 298 296 294 295 297 300 304 309 315 317 320 321 319 312 308 309 310 308 307 305 304 302 299 295 292 289 287 284 282 280 278 276 274 272 270 268 267 267 266 266 266 266 266 266 267 268 268 269 270 271 271 272
288 288 288 289 290 291 293 293 294 293 292 291 289 288 287 287 287 288 289 289 290 290 290 290 289 289 289 287 284 282 282 289 294 297 294 292 291 292 295 298 302 308 313 315 315 314 312 309 308 311 314 314 313 311 309 306 301 296 292 289 287 285 284 282 280 278 276 274 272 271 270 269 269 268 268 268 268 268 268 268 269 270 270 271 271 272
280 281 282 284 285 286 287 288 288 288 287 286 286 285 284 285 285 285 286 287 287 287 287 286 285 285 285 284 283 282 281 285 289 292 293 291 290 291 294 298 302 307 311 313 313 312 309 309 312 314 316 315 315 314 313 310 306 300 295 291 287 285 283 281 280 278 277 276 275 274 272 272 270 270 269 268 268 268 268 268 268 269 270 270 271 272
278 279 280 282 283 284 286 286 286 286 285 285 285 285 285 285 285 285 285 285 285 284 284 283 283 282 281 280 281 281 280 278 283 289 292 291 291 292 294 298 302 307 310 312 313 313 312 312 314 314 315 314 313 313 313 311 308 305 300 294 290 286 281 279 277 277 277 276 276 275 274 273 272 271 270 269 268 268 268 268 268 268 269 270 270 271
283 284 284 285 286 287 288 288 288 287 287 286 286 286 286 286 286 286 286 285 284 283 282 281 280 280 279 279 278 277 275 273 279 286 289 288 289 291 293 297 301 305 308 309 310 310 309 310 311 311 311 311 311 312 312 310 309 307 303 299 294 288 282 277 274 274 274 275 275 275 274 273 272 271 270 269 269 268 268 268 268 268 268 268 269 270
289 289 289 289 289 289 289 289 289 288 288 288 288 288 287 287 286 286 285 285 283 282 281 280 279 279 279 279 280 280 277 275 278 282 284 284 286 288 291 294 299 302 304 305 306 306 305 306 308 309 308 308 310 311 310 308 307 307 306 304 300 293 285 277 273 271 271 271 271 271 271 271 271 270 270 269 269 268 268 268 267 267 267 268 268 269
291 291 291 290 290 290 290 289 289 288 288 288 289 288 288 287 287 286 285 284 283 283 282 281 280 279 278 278 279 280 280 279 278 278 279 280 283 285 288 292 296 299 300 300 301 303 303 303 305 306 306 306 306 307 307 305 305 305 306 307 305 301 292 281 274 270 268 267 266 266 266 267 267 267 268 268 268 267 267 267 267 267 268 268 269 269
292 291 291 291 290 290 290 289 289 288 288 288 288 288 287 287 287 286 286 285 285 284 284 283 281 280 278 277 276 276 277 277 276 275 275 277 280 283 286 290 293 295 298 298 299 300 300 301 301 303 304 303 303 302 303 303 304 306 308 308 307 303 295 285 275 268 265 264 263 262 262 263 263 264 265 265 266 266 266 267 267 268 268 269 269 270
292 292 291 291 291 290 290 289 289 288 288 287 287 286 287 287 287 287 287 287 287 286 285 284 283 281 279 277 276 275 275 274 274 273 273 274 277 280 284 288 291 293 295 296 297 297 297 297 298 299 300 300 300 300 300 301 304 307 310 309 306 302 297 288 277 267 262 260 260 259 259 259 260 261 261 262 263 264 265 266 267 267 268 269 269 270
291 291 291 291 290 290 290 289 289 288 287 286 286 286 286 286 287 287 287 287 287 287 286 285 284 282 280 279 277 276 275 275 274 274 274 275 277 280 283 287 290 293 294 295 296 296 296 296 297 297 297 298 298 299 300 302 305 309 312 312 310 307 302 294 283 271 262 258 257 257 258 258 258 259 260 261 262 263 263 265 265 266 267 268 268 269
291 291 291 290 290 289 289 288 287 287 286 286 286 286 286 286 287 287 287 287 287 287 287 286 285 284 281 279 277 276 275 275 276 276 277 278 280 282 285 288 290 293 294 294 295 295 295 295 296 296 297 297 298 299 301 304 308 312 314 314 312 308 302 298 291 281 271 264 261 260 260 259 259 259 260 261 261 262 263 264 264 265 266 267 267 268
290 290 291 290 290 289 289 288 287 286 285 285 285 285 285 286 286 287 287 287 288 288 288 288 287 287 285 284 281 279 276 276 276 277 278 280 282 284 287 289 291 292 293 293 293 293 293 294 295 295 296 297 299 300 302 306 309 311 313 312 309 303 298 298 297 293 287 282 277 272 267 264 262 261 261 261 262 262 263 264 264 265 266 267 268 268
290 290 290 290 290 290 289 288 287 285 284 284 283 283 284 284 284 284 285 285 285 286 286 286 286 286 286 286 286 284 282 280 279 279 280 282 284 287 289 291 292 292 292 291 291 292 293 294 294 295 297 298 299 301 303 308 310 310 311 310 309 308 308 305 302 299 297 294 290 284 277 270 265 263 262 262 262 263 264 264 265 265 266 267 268 270
290 290 290 290 290 289 288 287 285 284 282 281 281 281 281 281 281 281 281 282 282 283 283 282 282 282 282 283 283 283 283 282 282 282 283 285 287 288 290 291 291 290 290 289 290 291 293 294 295 296 297 298 300 302 304 309 312 312 310 310 310 309 307 305 304 303 300 298 294 289 282 274 269 266 264 264 264 264 264 264 265 265 266 267 269 270
291 291 290 289 289 287 286 284 283 281 280 279 278 278 279 279 279 279 279 280 281 281 280 280 280 281 281 281 281 281 281 282 283 284 285 286 287 288 289 289 288 288 287 288 288 289 290 292 294 296 298 299 300 302 306 310 313 313 311 311 310 309 305 305 305 306 305 302 299 294 287 280 274 270 267 265 265 264 264 264 265 265 266 266 267 268
291 291 291 290 289 287 286 284 282 280 278 277 276 276 277 277 277 278 277 278 278 279 279 279 279 280 281 282 282 282 282 283 285 287 288 289 289 289 289 288 287 286 286 286 287 287 288 290 293 296 299 301 302 304 307 310 312 313 312 312 311 310 309 308 308 308 306 304 301 297 292 286 281 276 273 270 268 267 267 267 267 268 269 269 269 269
293 293 292 292 291 289 287 285 283 280 279 277 276 276 276 276 276 276 276 276 276 277 277 278 279 280 281 281 282 283 283 285 286 288 290 291 292 292 291 289 287 285 284 285 286 287 289 291 294 297 300 301 302 305 308 309 310 311 312 312 311 309 308 307 308 307 305 303 301 298 294 290 286 283 280 277 274 273 272 273 273 273 274 274 275 275
294 294 293 293 292 290 289 286 284 281 279 278 277 276 276 276 276 276 275 275 275 275 276 277 277 278 278 279 280 282 284 286 287 287 288 288 288 289 289 287 285 283 282 283 285 288 290 292 294 296 298 299 300 304 308 309 309 310 310 310 310 309 308 307 306 305 303 301 299 297 294 292 290 288 286 284 281 279 278 278 278 278 279 279 280 280
293 292 292 291 291 290 288 286 284 281 279 277 277 277 276 276 275 275 276 275 275 275 276 276 277 277 278 280 282 284 286 287 287 287 286 285 285 284 283 281 280 281 282 283 285 288 290 291 291 292 294 297 299 303 308 309 310 310 311 311 311 310 309 308 307 306 304 302 300 298 296 294 292 291 290 289 287 285 283 281 281 281 281 282 283 283
290 289 289 289 289 288 287 285 282 280 278 276 276 276 276 275 275 274 273 274 274 275 275 275 277 278 280 282 284 287 288 288 288 287 284 283 283 280 276 273 273 276 280 282 285 289 291 293 293 293 294 297 300 303 306 309 311 312 312 312 312 312 311 310 310 310 308 306 304 302 300 299 297 295 293 292 290 288 286 285 283 283 283 284 284 285
288 287 287 287 286 286 285 283 282 279 277 276 275 274 274 275 274 273 272 271 272 272 273 274 275 277 280 283 286 288 289 289 288 286 282 281 279 275 268 264 263 267 275 282 289 294 298 300 300 300 300 300 301 303 304 307 310 312 314 313 314 314 314 313 312 312 311 308 306 304 303 303 301 300 298 294 292 291 289 288 287 285 285 285 285 286